This is the latest recevied weather packets stored in our database for station/object WL7CLI. If no packets are shown the sender has not sent any weather packets the latest 10 day(s).
| Time | Temp. | Humidity | Pressure | Rain* | Wind** | Luminosity | Snow |
|---|---|---|---|---|---|---|---|
| 1777527372 | 7.78° C | 65% | 1018.3 hPa | 0 mm | - | - | - |
| 1777526904 | 7.78° C | 65% | 1017.9 hPa | 0 mm | - | - | - |
| 1777526696 | 7.78° C | 66% | 1018.4 hPa | 0 mm | - | - | - |
| 1777526171 | 7.22° C | 67% | 1018.5 hPa | 0 mm | - | - | - |
| 1777525498 | 7.78° C | 66% | 1018.5 hPa | 0 mm | - | - | - |
| 1777525104 | 7.78° C | 65% | 1018 hPa | 0 mm | - | - | - |
| 1777524973 | 7.78° C | 64% | 1018.4 hPa | 0 mm | - | - | - |
| 1777524297 | 7.78° C | 66% | 1018.5 hPa | 0 mm | - | - | - |
| 1777523772 | 7.78° C | 66% | 1018.6 hPa | 0 mm | - | - | - |
| 1777523304 | 7.22° C | 66% | 1018.2 hPa | 0 mm | - | - | - |
| 1777523097 | 7.22° C | 68% | 1018.7 hPa | 0 mm | - | - | - |
| 1777522572 | 7.22° C | 67% | 1018.7 hPa | 0 mm | - | - | - |
| 1777521897 | 7.78° C | 65% | 1018.7 hPa | 0 mm | - | - | - |
| 1777521504 | 7.78° C | 66% | 1018.3 hPa | 0 mm | - | - | - |
| 1777521372 | 7.78° C | 66% | 1018.7 hPa | 0 mm | - | - | - |
| 1777520696 | 7.78° C | 65% | 1018.8 hPa | 0 mm | - | - | - |
| 1777520173 | 7.78° C | 64% | 1018.8 hPa | 0 mm | - | - | - |
| 1777519704 | 8.33° C | 62% | 1018.3 hPa | 0 mm | - | - | - |
| 1777519496 | 8.33° C | 62% | 1018.8 hPa | 0 mm | - | - | - |
| 1777518971 | 8.33° C | 63% | 1018.7 hPa | 0 mm | - | - | - |
| 1777518298 | 8.89° C | 60% | 1018.6 hPa | 0 mm | - | - | - |
| 1777517904 | 8.89° C | 59% | 1018.3 hPa | 0 mm | - | - | - |
| 1777517773 | 8.89° C | 59% | 1018.7 hPa | 0 mm | - | - | - |
| 1777517340 | 9.44° C | 55% | 1018.5 hPa | 0 mm | - | - | - |
| 1777517097 | 9.44° C | 55% | 1018.5 hPa | 0 mm | - | - | - |
* Rain latest hour (hover to see other rain measurements)
** Current wind speed in m/s (hover to see current wind gust speed)